User: anonymous   Login
Location: Alfortville
(48.8058°N, 2.4204°E)
Time: 17:45:48
(UTC+00:00)
Language:

MetOp-A - Orbit

View from above orbital plane
View from above orbital plane
View from above satellite
View from above satellite

Ground track
Ground track

The orbit data is extracted from the following two-line orbital elements,

1 29499U 06044A   22021.45324041  .00000486  00000-0  72964-4 0  9997
2 29499  98.4715  61.2666 0200071 108.5832   3.3051 14.66895604791977
Epoch (UTC): 21 January 2022 10:52:39
Eccentricity: 0.0200071
inclination: 98.4715°
perigee height: 530 km
apogee height: 812 km
right ascension of ascending node: 61.2666°
argument of perigee: 108.5832°
revolutions per day: 14.66895604
mean anomaly at epoch: 3.3051°
orbit number at epoch: 79197

The dashed part of the orbit path shows where the satellite is in the earth's shadow,  

DLR